Location: Moscow
(38.3171°N, 79.0889°W)
Time: 02:21:21
(UTC+00:00)

Meteor 1-21 Rocket - Pass Details

Date: 07 November 2025
Orbit: 831 x 907 km, 81.2° (Epoch: 08 December)

Event Time Altitude Azimuth Distance (km) Brightness Sun altitude
Rises 22:28:13 0° 350° (N) 3,397 7.3 -4.2°
Reaches altitude 10° 22:30:38 10° 351° (N) 2,452 6.5 -4.6°
Maximum altitude 22:36:11 88° 264° (W) 837 4.3 -5.7°
Drops below altitude 10° 22:41:42 10° 173° (S) 2,430 6.7 -6.7°
Sets 22:44:05 0° 174° (S) 3,363 7.4 -7.1°
